Station LTRM4 - 9076033 - Little Rapids, MI Image indicating link to RSS feed of recent meteorological observations for station LTRM4


Conditions at LTRM4 as of
(4:30 am EDT)
0830 GMT on 05/20/2024:
     

Click on the graph icon in the table below to see a time series plot of the last five days of that observation.

5-day plot - Wind Speed Wind Speed (WSPD): 0.0 kts
5-day plot - Wind Gust Wind Gust (GST): 0.0 kts
5-day plot - Atmospheric Pressure Atmospheric Pressure (PRES):29.93 in
5-day plot - Air Temperature Air Temperature (ATMP): 52.0 °F
5-day plot - Water Temperature Water Temperature (WTMP): 45.5 °F
5-day plot - Dew Point Dew Point (DEWP): 45.3 °F
5-day plot - Wind Speed at 10 Meters Wind Speed at 10 meters (WSPD10M): 0.0 kts
5-day plot - Wind Speed at 20 Meters Wind Speed at 20 meters (WSPD20M): 0.0 kts
5-day plot -  Wind Speed, Wind Gust and Atmospheric Pressure Combined plot of Wind Speed, Gust, and Air Pressure
NOS Water Level Observation Network Water Level
Previous observations
TIME
(EDT)
5-day plot - Wind Direction
WDIR
 
5-day plot - Wind Speed
WSPD
kts
5-day plot - Wind Gust
GST
kts
5-day plot - Wave Height
WVHT
ft
5-day plot - Dominant Wave Period
DPD
sec
5-day plot - Average Wave Period
APD
sec
5-day plot - Mean Wave Direction
MWD
 
5-day plot - Atmospheric Pressure
PRES
in
5-day plot - Pressure Tendency
PTDY
in
5-day plot - Air Temperature
ATMP
°F
5-day plot - Water Temperature
WTMP
°F
5-day plot - Dew Point
DEWP
°F
5-day plot - Salinity
SAL
psu
5-day plot - Visibility
VIS
nmi
5-day plot - Tide (above MLLW)
TIDE
ft
2024-05-20 04:24 am- 0.0 0.0----29.93- 52.2 45.5 45.3---
2024-05-20 04:18 am- 0.0 1.0----29.93- 52.9 45.5 45.3---
2024-05-20 04:12 am- 0.0 2.9----29.93- 52.9 45.5 45.9---
2024-05-20 04:06 amWNW 1.9 1.9----29.93- 52.9 45.5 45.3---
2024-05-20 04:00 amWNW 1.0 1.9----29.93+0.01 52.7 45.5 45.3---
2024-05-20 03:54 am- 0.0 1.0----29.94- 53.2 45.5 44.2---
2024-05-20 03:48 am- 0.0 1.0----29.93- 53.1 45.5 42.6---
2024-05-20 03:42 am E 1.0 1.9----29.93- 52.7 45.5 43.7---
2024-05-20 03:36 amENE 1.0 1.9----29.93- 52.9 45.5 42.8---
2024-05-20 03:30 amESE 1.9 1.9----29.93- 52.7 45.3 43.3---
2024-05-20 03:24 am E 1.9 1.9----29.93- 52.7 45.3 43.2---
2024-05-20 03:18 am E 1.9 2.9----29.93- 52.7 45.3 43.3---
2024-05-20 03:12 am E 1.9 1.9----29.92- 52.5 45.3 43.3---
2024-05-20 03:06 am E 1.9 2.9----29.92- 52.5 45.3 43.7---
2024-05-20 03:00 am E 2.9 2.9----29.92+0.00 52.7 45.3 43.5---
2024-05-20 02:54 am E 1.9 2.9----29.93- 52.7 45.3 43.9---
2024-05-20 02:48 am E 2.9 2.9----29.93- 52.3 45.3 43.9---
2024-05-20 02:42 am E 2.9 2.9----29.93- 52.3 45.3 44.6---
2024-05-20 02:36 amENE 1.9 1.9----29.93- 51.8 45.3 44.4---
2024-05-20 02:30 amENE 1.9 1.9----29.94- 51.8 45.3 44.6---
2024-05-20 02:24 am- 0.0 1.0----29.93- 52.5 45.3 44.4---
2024-05-20 02:18 am- 0.0 1.0----29.94- 52.3 45.3 44.6---
2024-05-20 02:12 am- 0.0 1.0----29.94- 52.5 45.3 45.1---
2024-05-20 02:06 am- 0.0 0.0----29.94- 52.7 45.3 45.3---
2024-05-20 02:00 am- 0.0 0.0----29.94+0.00 52.9 45.3 45.3---
2024-05-20 01:54 am- 0.0 0.0----29.94- 53.4 45.3 44.8---
2024-05-20 01:48 am- 0.0 1.0----29.94- 53.2 45.3 44.6---
2024-05-20 01:42 am- 0.0 1.0----29.93- 53.4 45.3 43.0---
2024-05-20 01:36 amESE 1.0 1.9----29.93- 53.2 45.3 43.2---
2024-05-20 01:30 am E 1.9 2.9----29.93- 53.4 45.3 43.0---
2024-05-20 01:24 am E 2.9 4.1----29.93- 52.7 45.3 43.3---
2024-05-20 01:18 am-------29.93-- 45.3----
2024-05-20 01:12 am-------29.93-- 45.3----
2024-05-20 01:06 am-------29.93-- 45.5----
2024-05-20 01:00 am- 0.0 1.9----29.92-0.01 51.8 45.3 42.4---
2024-05-20 12:54 am- 0.0 1.0----29.92- 53.1 45.3 42.1---
2024-05-20 12:48 am- 0.0 1.0----29.92- 53.8 45.3 41.9---
2024-05-20 12:42 am E 1.0 1.9----29.92- 54.0 45.3 41.7---
2024-05-20 12:36 am- 0.0 1.0----29.92- 53.4 45.3 42.4---
2024-05-20 12:30 am- 0.0 1.9----29.93- 54.0 45.3 41.9---
2024-05-20 12:24 am SW 1.9 1.9----29.93- 54.0 45.3 42.1---
2024-05-20 12:18 am SW 1.9 1.9----29.93- 53.8 45.3 42.3---
2024-05-20 12:12 amSSW 1.9 1.9----29.93- 53.4 45.3 41.2---
2024-05-20 12:06 amESE 1.0 1.9----29.92- 53.6 45.3 40.5---
2024-05-20 12:00 am- 0.0 1.0----29.92-0.01 53.6 45.3 42.6---
2024-05-19 11:54 pm- 0.0 1.0----29.93- 54.0 45.3 43.2---
2024-05-19 11:48 pmWSW 1.0 1.9----29.93- 54.1 45.3 42.1---
2024-05-19 11:42 pm- 0.0 1.9----29.93- 53.4 45.3 42.1---
2024-05-19 11:36 pmESE 1.9 2.9----29.93- 53.2 45.3 41.7---
2024-05-19 11:30 pm E 2.9 2.9----29.94- 52.9 45.3 41.7---
2024-05-19 11:24 pm E 1.0 1.9----29.94- 53.8 45.3 40.1---
2024-05-19 11:18 pmESE 1.0 1.9----29.94-- 45.3----
2024-05-19 11:12 pmSSW 1.0 1.9----29.94-- 45.3----
2024-05-19 11:06 pm S 1.9 1.9----29.94-- 45.3----
2024-05-19 11:00 pm- 0.0 1.0----29.94+0.00 55.9 45.3 39.4---
2024-05-19 10:54 pmENE 1.9 4.1----29.94- 57.2 45.3 37.2---
2024-05-19 10:48 pmENE 2.9 4.1----29.94- 56.3 45.3 38.5---
2024-05-19 10:42 pm E 1.9 2.9----29.94- 54.7 45.3 40.5---
2024-05-19 10:36 pm SW 2.9 5.1----29.95- 57.9 45.3 37.2---
2024-05-19 10:30 pm SW 5.1 7.0----29.95- 59.0 45.3 35.4---
2024-05-19 10:24 pm SW 5.1 6.0----29.95- 59.2 45.3 35.6---
2024-05-19 10:18 pm SW 5.1 6.0----29.94- 59.5 45.5 35.6---
2024-05-19 10:12 pmWSW 4.1 5.1----29.94- 58.1 45.5 37.6---
2024-05-19 10:06 pmSSW 1.9 2.9----29.94- 57.2 45.5 39.2---
2024-05-19 10:00 pm S 1.0 1.9----29.93- 58.8 45.5 37.6---
2024-05-19 09:54 pm- 0.0 1.0----29.93- 59.5 45.5 35.6---
2024-05-19 09:48 pm- 0.0 2.9----29.93- 60.3 45.5 37.8---
2024-05-19 09:42 pmWSW 1.9 4.1----29.93- 62.2 45.5 34.2---
2024-05-19 09:36 pm W 4.1 5.1----29.93- 62.4 45.5 33.1---
2024-05-19 09:30 pmWSW 4.1 5.1----29.93-- 45.5----
2024-05-19 09:24 pmWSW 4.1 5.1----29.93-- 45.5----
2024-05-19 09:18 pmWSW 2.9 5.1----29.93-- 45.3----
2024-05-19 09:12 pmWSW 2.9 4.1----29.93-- 45.3----
2024-05-19 09:06 pmWSW 2.9 6.0----29.93-- 45.3----
2024-05-19 09:00 pm W 4.1 5.1----29.93-0.01- 45.3----
2024-05-19 08:54 pm W 5.1 7.0----29.93-- 45.3----
2024-05-19 08:48 pm NW 6.0 8.9----29.93- 65.7 45.3 31.6---
2024-05-19 08:42 pm NW 6.0 8.9----29.93- 65.5 45.3 31.1---
2024-05-19 08:36 pm NW 6.0 8.0----29.93- 66.0 45.3 30.2---
2024-05-19 08:30 pm NW 5.1 8.0----29.94- 65.5 45.3 31.6---
2024-05-19 08:24 pm NW 6.0 9.9----29.93- 65.5 45.5 31.1---
2024-05-19 08:18 pm---------- 45.3----
2024-05-19 08:12 pm---------- 45.3----
2024-05-19 08:06 pm---------- 45.1----
2024-05-19 08:00 pm NW 6.0 11.1----29.94+0.00- 45.3----
2024-05-19 07:54 pm NW 7.0 8.9----29.94-- 45.3----
2024-05-19 07:48 pm NW 6.0 8.9------------
2024-05-19 07:42 pm NW 6.0 8.9------------
2024-05-19 07:36 pm NW 8.0 11.1------------
2024-05-19 07:30 pm NW 8.9 14.0----29.94- 67.6 45.3 30.0---
2024-05-19 07:24 pmNNW 8.0 13.0----29.94- 66.9 45.3 30.2---
2024-05-19 07:18 pmNNW 9.9 12.0----29.94- 66.7 45.3 29.5---
2024-05-19 07:12 pm NW 9.9 15.9----29.94- 67.5 45.3 30.2---
2024-05-19 07:06 pmNNW 9.9 12.0----29.94- 66.7 45.3 30.7---
2024-05-19 07:00 pmNNW 8.9 12.0------- 45.3----
2024-05-19 06:54 pm NW 7.0 11.1------- 45.3----
2024-05-19 06:48 pmNNW 8.0 13.0----29.94-- 45.3----
2024-05-19 06:42 pmNNW 8.9 17.1----29.94-- 45.3----
2024-05-19 06:36 pmNNW 8.9 15.9----29.93-- 45.3----
2024-05-19 06:30 pm NW 8.0 13.0----29.94-- 45.3----
2024-05-19 06:24 pm NW 7.0 9.9----29.94-- 45.3----
2024-05-19 06:18 pm-------29.94- 66.9 45.3 32.4---
2024-05-19 06:12 pm-------29.94- 66.9 45.3 30.7---
2024-05-19 06:06 pm-------29.94- 66.6 45.3 31.3---
2024-05-19 06:00 pm NW 8.9 12.0----29.94+0.00 66.6 45.3 32.5---
2024-05-19 05:54 pm NW 8.9 15.0----29.94- 66.4 45.3 32.5---
2024-05-19 05:48 pm NW 8.9 12.0----29.94- 66.6 45.3 33.4---
2024-05-19 05:42 pm NW 8.0 13.0----29.94- 66.2 45.3 33.8---
2024-05-19 05:36 pm NW 11.1 15.0----29.94- 67.5 45.3 32.7---
2024-05-19 05:30 pm NW 9.9 14.0----29.94- 66.4 45.3 33.8---
2024-05-19 05:24 pm NW 8.9 12.0----29.95- 65.5 45.3 34.3---
2024-05-19 05:18 pm NW 8.0 12.0----29.94- 66.4 45.3 33.4---
2024-05-19 05:12 pm NW 9.9 15.0----29.94- 66.2 45.3 33.3---
2024-05-19 05:06 pm NW 12.0 15.9----29.94- 65.7 45.3 32.5---
2024-05-19 05:00 pmNNW 14.0 18.1----29.93+0.00 65.8 45.3 31.3---
2024-05-19 04:54 pm NW 9.9 15.0----29.93- 66.0 45.5 33.1---
2024-05-19 04:48 pm NW 11.1 14.0----29.93- 66.6 45.1 32.4---
2024-05-19 04:42 pmNNW 13.0 15.9----29.93- 65.3 45.1 32.5---
2024-05-19 04:36 pm NW 8.9 15.9----29.93- 64.9 45.1 34.2---
2024-05-19 04:30 pm NW 9.9 14.0----29.93- 66.0 45.1 32.5---
2024-05-19 04:24 pm NW 9.9 15.0----29.93- 65.7 45.1 33.8---
2024-05-19 04:18 pm NW 8.9 17.1----29.93- 65.8 45.1 34.2---
2024-05-19 04:12 pmNNW 13.0 15.0----29.94- 65.1 45.1 33.1---
2024-05-19 04:06 pm NW 8.9 15.0----29.94- 65.7 45.1 35.1---
2024-05-19 04:00 pm NW 8.9 15.9----29.94+0.01- 45.1----
2024-05-19 03:54 pmNNW 11.1 14.0----29.94-- 45.1----
2024-05-19 03:48 pm NW 12.0 15.9----29.94-- 45.1----
2024-05-19 03:42 pm NW 13.0 15.9----29.94-- 45.1----
2024-05-19 03:36 pm NW 9.9 15.0----29.93-- 45.1----
2024-05-19 03:30 pm NW 8.9 15.9----29.93- 65.1 45.1 38.5---
2024-05-19 03:24 pm NW 9.9 15.0----29.93- 64.2 45.1 38.3---
2024-05-19 03:18 pm NW 9.9 14.0----29.94- 65.3 45.1 38.3---
2024-05-19 03:12 pm NW 11.1 13.0----29.93- 64.0 45.3 37.6---
2024-05-19 03:06 pm NW 12.0 17.1----29.94- 64.0 45.1 39.6---
2024-05-19 03:00 pm NW 11.1 18.1----29.94+0.02- 45.3----
2024-05-19 02:54 pm NW 12.0 17.1----29.93-- 45.3----
2024-05-19 02:48 pmNNW 15.0 19.0----29.93- 63.5 45.3 36.9---
2024-05-19 02:42 pm NW 13.0 18.1----29.93- 64.4 45.5 37.6---
2024-05-19 02:36 pm NW 12.0 19.0----29.93- 64.4 45.1 38.8---
2024-05-19 02:30 pm NW 13.0 19.0----29.93- 64.4 45.1 38.3---
2024-05-19 02:24 pmNNW 17.1 20.0----29.93- 63.3 45.1 37.6---
2024-05-19 02:18 pm NW 9.9 17.1----29.93- 63.0 45.1 38.7---
2024-05-19 02:12 pm NW 9.9 15.9----29.93- 64.0 45.1 38.7---
2024-05-19 02:06 pmNNW 11.1 14.0----29.93- 63.7 45.1 38.8---
2024-05-19 02:00 pm NW 9.9 14.0----29.93+0.02 63.5 45.1 38.5---
2024-05-19 01:54 pm NW 11.1 15.0----29.93- 64.2 45.3 38.5---
2024-05-19 01:48 pm NW 12.0 17.1----29.93- 63.3 45.3 38.7---
2024-05-19 01:42 pm NW 12.0 15.0----29.93- 64.2 45.3 39.0---
2024-05-19 01:36 pm NW 9.9 14.0----29.93- 65.1 45.3 39.2---
2024-05-19 01:30 pm NW 12.0 15.0----29.93- 64.2 45.3 39.7---
2024-05-19 01:24 pm NW 12.0 18.1----29.93- 64.6 45.3 39.0---
2024-05-19 01:18 pm NW 13.0 17.1----29.93-- 45.3----
2024-05-19 01:12 pm NW 12.0 15.9----29.93-- 45.3----
2024-05-19 01:06 pm NW 12.0 17.1----29.93-- 45.3----
2024-05-19 01:00 pm NW 11.1 15.9----29.92+0.04- 45.5----
2024-05-19 12:54 pm NW 12.0 15.0----29.92-- 45.1----
2024-05-19 12:48 pm NW 11.1 15.0----29.92- 64.4 45.1 39.6---
2024-05-19 12:42 pm NW 8.0 15.0----29.92- 65.3 45.1 39.9---
2024-05-19 12:36 pm NW 11.1 15.0----29.92- 65.7 45.1 39.7---
2024-05-19 12:30 pm NW 8.9 13.0----29.92- 64.2 45.1 40.1---
2024-05-19 12:24 pm NW 12.0 15.9----29.92- 64.2 45.1 39.0---
2024-05-19 12:18 pm NW 14.0 17.1----29.91- 63.9 45.1 38.7---
2024-05-19 12:12 pm NW 9.9 14.0----29.92- 63.5 45.1 40.5---
2024-05-19 12:06 pm NW 9.9 17.1----29.92- 62.8 45.3 39.6---
2024-05-19 12:00 pm NW 11.1 17.1----29.92+0.05 62.8 45.1 40.8---
2024-05-19 11:54 am NW 14.0 18.1----29.92- 63.0 45.1 39.0---
2024-05-19 11:48 am NW 15.0 21.0----29.92- 63.1 45.1 38.3---
2024-05-19 11:42 am NW 12.0 18.1----29.92- 63.3 45.1 38.8---
2024-05-19 11:36 am NW 9.9 15.9----29.92- 63.5 45.1 40.6---
2024-05-19 11:30 am NW 13.0 17.1----29.92- 63.3 45.1 39.0---
2024-05-19 11:24 am NW 13.0 17.1----29.91- 62.8 45.1 39.7---
2024-05-19 11:18 am-------29.91- 63.0 45.1 41.0---
2024-05-19 11:12 am-------29.91- 63.0 45.0 41.7---
2024-05-19 11:06 am-------29.91- 64.0 45.0 41.9---
2024-05-19 11:00 am-------29.91+0.05 62.8 45.0 41.7---
2024-05-19 10:54 am-------29.91- 63.1 45.0 41.0---
2024-05-19 10:48 am-------29.91- 63.7 45.0 40.5---
2024-05-19 10:42 am-------29.91- 63.7 45.0 39.9---
2024-05-19 10:36 am-------29.91- 63.9 45.0 40.6---
2024-05-19 10:30 am NW 12.0 15.9----29.90- 64.2 45.0 39.9---
2024-05-19 10:24 amWNW 11.1 15.9----29.90- 64.6 45.0 40.6---
2024-05-19 10:18 amWNW 9.9 14.0----29.90- 64.8 45.1 41.7---
2024-05-19 10:12 am NW 8.0 9.9----29.90- 64.6 45.1 42.4---
2024-05-19 10:06 am NW 6.0 8.0----29.89- 63.7 45.1 42.6---
2024-05-19 10:00 amWNW 7.0 8.9----29.89+0.04- 45.1----
2024-05-19 09:54 am NW 6.0 7.0----29.88-- 45.3----
2024-05-19 09:48 am-------29.88- 62.1 44.8 43.2---
2024-05-19 09:42 am-------29.88- 62.1 44.8 44.1---
2024-05-19 09:36 am-------29.88- 61.5 44.8 43.9---
2024-05-19 09:30 am NW 6.0 8.9----29.88-- 44.8----
2024-05-19 09:24 am NW 6.0 9.9----29.88-- 44.8----
2024-05-19 09:18 am NW 7.0 11.1----29.88-- 44.8----
2024-05-19 09:12 amWNW 8.0 9.9----29.88-- 44.8----
2024-05-19 09:06 amWNW 7.0 8.9----29.87-- 44.8----
2024-05-19 09:00 amWNW 7.0 9.9----29.87+0.05- 44.8----
2024-05-19 08:54 amWNW 7.0 9.9----29.87-- 44.8----
2024-05-19 08:48 amWNW 8.9 12.0----29.87- 58.6 44.8 44.2---
2024-05-19 08:42 amWNW 7.0 11.1----29.87- 58.6 44.8 44.4---
2024-05-19 08:36 amWNW 6.0 11.1----29.87- 58.5 44.8 43.9---
2024-05-19 08:30 am-------29.87- 58.1- 43.9---
2024-05-19 08:24 am-------29.86- 58.1- 44.2---
2024-05-19 08:18 amWNW 8.0 14.0----29.86-- 44.8----
2024-05-19 08:12 am NW 9.9 13.0----29.86-- 45.0----
2024-05-19 08:06 amWNW 8.0 9.9----29.86-- 45.0----
2024-05-19 08:00 amWNW 8.9 12.0----29.86+0.06 57.2 45.0 43.0---
2024-05-19 07:54 amWNW 9.9 13.0----29.86- 57.6 45.0 43.2---
2024-05-19 07:48 am NW 8.0 12.0----29.85- 57.7 45.0 43.9---
2024-05-19 07:42 amWNW 8.0 12.0----29.85- 57.6 44.8 44.4---
2024-05-19 07:36 am NW 9.9 14.0----29.85- 57.2 45.0 44.1---
2024-05-19 07:30 am NW 8.9 15.0----29.85- 58.1 45.0 45.1---
2024-05-19 07:24 am NW 13.0 18.1----29.84- 58.5 45.0 44.8---
2024-05-19 07:18 amWNW 8.9 15.0----29.85- 59.5 45.0 47.5---
2024-05-19 07:12 am NW 6.0 11.1----29.85- 59.4 45.0 50.2---
2024-05-19 07:06 am NW 5.1 8.9----29.85- 58.5 45.1 53.2---
2024-05-19 07:00 am NW 2.9 4.1----29.84+0.09------
2024-05-19 06:54 am N 4.1 4.1----29.84-------
2024-05-19 06:48 amWNW 1.9 7.0----29.84-- 45.0----
2024-05-19 06:42 amENE 1.0 1.9----29.84-- 44.8----
2024-05-19 06:36 am- 0.0 1.0----29.84-- 44.8----
2024-05-19 06:30 am- 0.0 1.0----29.83- 57.4 44.8----
2024-05-19 06:24 amSSW 1.0 1.9----29.83- 57.2 44.8----
2024-05-19 06:18 amSSW 1.0 1.0----29.83-- 44.8----
2024-05-19 06:12 am SW 1.0 1.9----29.83-- 44.8----
2024-05-19 06:06 amSSW 1.0 2.9----29.82-- 44.8----
2024-05-19 06:00 am-------29.82+0.04------
2024-05-19 05:54 am-------29.81-------
2024-05-19 05:48 am S 2.9 4.1----29.80- 56.7 44.8 55.2---
2024-05-19 05:42 amSSW 2.9 4.1----29.81- 57.0 44.8 55.6---
2024-05-19 05:36 amSSE 2.9 5.1----29.80- 56.7 44.8 55.4---
2024-05-19 05:30 amSSE 5.1 5.1----29.80- 56.7 44.8 54.9---
2024-05-19 05:24 amSSE 1.9 4.1----29.80- 56.5 44.8 55.0---
2024-05-19 05:18 am S 1.9 2.9----29.80- 56.3 44.8 54.5---
2024-05-19 05:12 am S 1.0 2.9----29.80- 57.2 44.8 55.8---
2024-05-19 05:06 am S 2.9 6.0----29.80- 56.8 44.8 55.2---
2024-05-19 05:00 am S 5.1 6.0----29.79-0.03 57.0 44.8 54.9---
2024-05-19 04:54 amSSW 2.9 2.9----29.79- 57.6 44.8 55.6---